Albert Lea, MN

3:29 PM CDT on April 19, 2018 (GMT -0500)
Albert Lea Municipal

Weather History for KAEL - January, 2014

Change the Weather History Date:

Wednesday, January 15, 2014

  Actual Average Record
Temperature  
Mean Temperature 14 °F -  
Max Temperature 28 °F 20 °F 42 °F (2006)
Min Temperature 1 °F 6 °F -25 °F (2009)
Degree Days  
Heating Degree Days 52    
Moisture  
Dew Point 7 °F    
Average Humidity 78    
Maximum Humidity 93    
Minimum Humidity 68    
Precipitation  
Precipitation 0.00 in - - ()
Sea Level Pressure  
Sea Level Pressure 29.90 in    
Wind  
Wind Speed 9 mph (WSW)    
Max Wind Speed 18 mph    
Max Gust Speed 32 mph    
Visibility 9 miles    
Events Snow    
Averages and records for this station are not official NWS values.
T = Trace of Precipitation, MM = Missing Value Source: NWS Daily Summary

Daily Weather History Graph

Daily Weather History Graph

Search for Another Location

Airport or City:

Astronomy

Jan. 15, 2014 Rise Set
Actual Time 7:43 AM CST 5:02 PM CST
Civil Twilight 7:12 AM CST 5:34 PM CST
Nautical Twilight 6:36 AM CST 6:09 PM CST
Astronomical Twilight 6:02 AM CST 6:44 PM CST
Moon 5:02 PM CST (1/15) 6:58 AM CST (1/15)
Length of Visible Light 10h 22m
Length of Day
9h 18m
Full, 100% of the Moon is Illuminated
Jan 15
Full
Jan 15
Full
Jan 23
Last Quarter
Jan 30
New
Feb 6
First Quarter

Hourly Weather History & Observations

Time (CST) Temp. Windchill Dew Point Humidity Pressure Visibility Wind Dir Wind Speed Gust Speed Precip Events Conditions
12:09 AM 6.8 °F -5.9 °F 1.4 °F 79% 30.08 in 10.0 mi NW 8.1 mph - N/A   Clear
12:29 AM 6.8 °F -7.8 °F 1.4 °F 79% 30.08 in 10.0 mi NW 10.4 mph 16.1 mph N/A   Clear
12:49 AM 6.8 °F -6.9 °F 1.4 °F 79% 30.09 in 10.0 mi NW 9.2 mph - N/A   Clear
1:09 AM 6.8 °F -6.9 °F 1.4 °F 79% 30.10 in 10.0 mi NW 9.2 mph 16.1 mph N/A   Clear
1:29 AM 6.8 °F -6.9 °F 1.4 °F 79% 30.10 in 10.0 mi NW 9.2 mph 18.4 mph N/A   Clear
1:49 AM 6.8 °F -6.9 °F 1.4 °F 79% 30.09 in 10.0 mi NW 9.2 mph - N/A   Clear
2:09 AM 5.0 °F -8.1 °F -0.4 °F 78% 30.10 in 10.0 mi NW 8.1 mph - N/A   Clear
2:29 AM 3.2 °F -9.1 °F -0.4 °F 85% 30.10 in 10.0 mi NNW 6.9 mph - N/A   Clear
2:50 AM 3.2 °F -7.8 °F -0.4 °F 85% 30.10 in 10.0 mi NW 5.8 mph - N/A   Clear
3:09 AM 3.2 °F -9.1 °F -0.4 °F 85% 30.10 in 10.0 mi NW 6.9 mph - N/A   Clear
3:29 AM 3.2 °F -9.1 °F -0.4 °F 85% 30.10 in 10.0 mi NNW 6.9 mph - N/A   Clear
3:50 AM 3.2 °F -10.3 °F -0.4 °F 85% 30.10 in 10.0 mi NW 8.1 mph - N/A   Clear
4:09 AM 3.2 °F -7.8 °F -0.4 °F 85% 30.10 in 10.0 mi NW 5.8 mph - N/A   Clear
4:29 AM 3.2 °F -10.3 °F -2.2 °F 78% 30.11 in 10.0 mi WNW 8.1 mph - N/A   Clear
4:49 AM 1.4 °F -11.3 °F -2.2 °F 85% 30.11 in 10.0 mi WNW 6.9 mph - N/A   Clear
5:09 AM 1.4 °F -9.9 °F -2.2 °F 85% 30.12 in 10.0 mi WNW 5.8 mph - N/A   Clear
5:29 AM 1.4 °F -12.5 °F -2.2 °F 85% 30.12 in 10.0 mi NW 8.1 mph - N/A   Scattered Clouds
5:49 AM 3.2 °F -10.3 °F -2.2 °F 78% 30.11 in 10.0 mi NW 8.1 mph - N/A   Mostly Cloudy
6:10 AM 3.2 °F -9.1 °F -2.2 °F 78% 30.10 in 10.0 mi NW 6.9 mph - N/A   Scattered Clouds
6:29 AM 3.2 °F -9.1 °F -2.2 °F 78% 30.10 in 10.0 mi NW 6.9 mph - N/A   Clear
6:49 AM 3.2 °F -7.8 °F -2.2 °F 78% 30.11 in 10.0 mi NW 5.8 mph - N/A   Clear
7:10 AM 1.4 °F -6.2 °F -2.2 °F 85% 30.11 in 10.0 mi WNW 3.5 mph - N/A   Clear
7:29 AM 1.4 °F -8.3 °F -2.2 °F 85% 30.11 in 10.0 mi NW 4.6 mph - N/A   Mostly Cloudy
7:49 AM 3.2 °F - -0.4 °F 85% 30.11 in 10.0 mi Calm Calm - N/A   Overcast
8:09 AM 5.0 °F - -0.4 °F 78% 30.09 in 10.0 mi Calm Calm - N/A   Overcast
8:29 AM 3.2 °F - -0.4 °F 85% 30.10 in 7.0 mi Calm Calm - N/A   Overcast
8:49 AM 5.0 °F - -0.4 °F 78% 30.09 in 10.0 mi Calm Calm - N/A   Overcast
9:09 AM 5.0 °F - -0.4 °F 78% 30.08 in 10.0 mi Calm Calm - N/A   Overcast
9:29 AM 6.8 °F - 1.4 °F 79% 30.08 in 10.0 mi Calm Calm - N/A   Overcast
9:49 AM 8.6 °F 2.0 °F 1.4 °F 73% 30.08 in 10.0 mi West 3.5 mph - N/A   Overcast
10:09 AM 8.6 °F -4.7 °F 1.4 °F 73% 30.08 in 10.0 mi WSW 9.2 mph - N/A   Overcast
10:29 AM 8.6 °F -2.6 °F 1.4 °F 73% 30.07 in 10.0 mi West 6.9 mph - N/A   Overcast
10:49 AM 8.6 °F -2.6 °F 1.4 °F 73% 30.06 in 10.0 mi WSW 6.9 mph - N/A   Mostly Cloudy
11:09 AM 8.6 °F -5.5 °F 3.2 °F 79% 30.05 in 10.0 mi WSW 10.4 mph - N/A   Overcast
11:29 AM 10.4 °F -4.8 °F 3.2 °F 73% 30.03 in 4.0 mi SW 12.7 mph - N/A   Haze
11:50 AM 10.4 °F 0.8 °F 3.2 °F 73% 30.01 in 5.0 mi SW 5.8 mph - N/A   Haze
12:09 PM 10.4 °F -2.4 °F 5.0 °F 79% 29.98 in 7.0 mi SW 9.2 mph 16.1 mph N/A   Scattered Clouds
12:29 PM 12.2 °F -1.0 °F 5.0 °F 73% 29.95 in 10.0 mi SW 10.4 mph - N/A   Scattered Clouds
12:50 PM 12.2 °F -1.0 °F 6.8 °F 79% 29.95 in 10.0 mi SW 10.4 mph - N/A   Scattered Clouds
1:09 PM 12.2 °F -1.8 °F 6.8 °F 79% 29.92 in 10.0 mi SSW 11.5 mph - N/A   Scattered Clouds
1:29 PM 14.0 °F 2.9 °F 6.8 °F 73% 29.90 in 10.0 mi SSW 8.1 mph - N/A   Clear
1:50 PM 15.8 °F 2.1 °F 6.8 °F 68% 29.88 in 10.0 mi SSW 12.7 mph 16.1 mph N/A   Scattered Clouds
2:09 PM 15.8 °F 4.2 °F 8.6 °F 73% 29.87 in 10.0 mi SSW 9.2 mph 16.1 mph N/A   Overcast
2:29 PM 15.8 °F 2.7 °F 8.6 °F 73% 29.85 in 10.0 mi SSW 11.5 mph - N/A   Overcast
2:50 PM 17.6 °F 5.7 °F 8.6 °F 68% 29.85 in 10.0 mi South 10.4 mph - N/A   Scattered Clouds
3:09 PM 17.6 °F 7.3 °F 10.4 °F 73% 29.84 in 10.0 mi SSW 8.1 mph - N/A   Scattered Clouds
3:29 PM 19.4 °F 8.6 °F 10.4 °F 68% 29.83 in 10.0 mi South 9.2 mph 17.3 mph N/A   Scattered Clouds
3:49 PM 19.4 °F 6.0 °F 10.4 °F 68% 29.81 in 10.0 mi South 13.8 mph 20.7 mph N/A   Mostly Cloudy
4:09 PM 19.4 °F 7.2 °F 10.4 °F 68% 29.81 in 10.0 mi South 11.5 mph 17.3 mph N/A   Mostly Cloudy
4:30 PM 19.4 °F 7.2 °F 10.4 °F 68% 29.80 in 10.0 mi South 11.5 mph 18.4 mph N/A   Overcast
4:49 PM 19.4 °F 6.6 °F 12.2 °F 74% 29.77 in 2.5 mi South 12.7 mph 20.7 mph N/A Snow Light Snow
5:10 PM 19.4 °F 6.6 °F 12.2 °F 74% 29.75 in 3.0 mi South 12.7 mph 18.4 mph N/A Snow Light Snow
5:29 PM 19.4 °F 6.6 °F 14.0 °F 80% 29.74 in 2.5 mi South 12.7 mph 23.0 mph N/A Snow Light Snow
5:49 PM 19.4 °F 5.5 °F 15.8 °F 86% 29.69 in 1.5 mi South 15.0 mph - N/A Snow Light Snow
6:10 PM 19.4 °F 5.5 °F 15.8 °F 86% 29.69 in 1.8 mi South 15.0 mph 24.2 mph N/A Snow Light Snow
6:29 PM 19.4 °F 5.0 °F 15.8 °F 86% 29.68 in 4.0 mi South 16.1 mph 25.3 mph N/A Snow Light Snow
6:49 PM 19.4 °F 5.0 °F 17.6 °F 93% 29.67 in 1.8 mi South 16.1 mph 27.6 mph N/A Snow Light Snow
7:10 PM 19.4 °F 5.5 °F 17.6 °F 93% 29.68 in 7.0 mi SSW 15.0 mph 25.3 mph N/A   Overcast
7:29 PM 19.4 °F 4.1 °F 17.6 °F 93% 29.65 in 10.0 mi SSW 18.4 mph 27.6 mph N/A   Mostly Cloudy
7:49 PM 21.2 °F 6.8 °F 15.8 °F 80% 29.61 in 10.0 mi SSW 17.3 mph 26.5 mph N/A   Scattered Clouds
8:10 PM 21.2 °F 7.3 °F 15.8 °F 80% 29.60 in 10.0 mi SSW 16.1 mph 24.2 mph N/A   Clear
8:29 PM 21.2 °F 7.3 °F 15.8 °F 80% 29.60 in 10.0 mi SSW 16.1 mph 24.2 mph N/A   Clear
8:49 PM 21.2 °F 7.3 °F 14.0 °F 74% 29.58 in 10.0 mi SSW 16.1 mph 25.3 mph N/A   Scattered Clouds
9:09 PM 23.0 °F 9.6 °F 14.0 °F 68% 29.54 in 10.0 mi SSW 16.1 mph 28.8 mph N/A   Scattered Clouds
9:30 PM 24.8 °F 12.9 °F 15.8 °F 69% 29.55 in 10.0 mi SSW 13.8 mph 25.3 mph N/A   Scattered Clouds
9:49 PM 24.8 °F 11.5 °F 15.8 °F 69% 29.54 in 10.0 mi SSW 17.3 mph 24.2 mph N/A   Clear
10:09 PM 24.8 °F 11.9 °F 17.6 °F 74% 29.52 in 10.0 mi SSW 16.1 mph 32.2 mph N/A   Clear
10:30 PM 24.8 °F 12.4 °F 17.6 °F 74% 29.52 in 10.0 mi SW 15.0 mph 21.9 mph N/A   Clear
10:49 PM 26.6 °F 14.7 °F 19.4 °F 74% 29.51 in 10.0 mi SW 15.0 mph 20.7 mph N/A   Mostly Cloudy
11:09 PM 26.6 °F 13.8 °F 19.4 °F 74% 29.50 in 10.0 mi SW 17.3 mph 27.6 mph N/A   Mostly Cloudy
11:30 PM 26.6 °F 14.7 °F 19.4 °F 74% 29.50 in 10.0 mi SW 15.0 mph 20.7 mph N/A   Scattered Clouds
11:49 PM 28.4 °F 18.5 °F 21.2 °F 74% 29.49 in 10.0 mi SW 11.5 mph - N/A   Mostly Cloudy